Roseau, MN

8:55 PM CST on January 20, 2017 (GMT -0600)
Roseau Municipal-Billberg

Weather History for KROX - June, 2013

Change the Weather History Date:

Tuesday, June 11, 2013

  Actual Average Record
Temperature  
Mean Temperature 62 °F -  
Max Temperature 77 °F 72 °F 93 °F (1956)
Min Temperature 48 °F 47 °F 31 °F (1969)
Degree Days  
Heating Degree Days 2    
Growing Degree Days 12 (Base 50)    
Moisture  
Dew Point 51 °F    
Average Humidity 63    
Maximum Humidity 88    
Minimum Humidity 34    
Precipitation  
Precipitation 0.01 in - - ()
Sea Level Pressure  
Sea Level Pressure 29.87 in    
Wind  
Wind Speed 6 mph (West)    
Max Wind Speed 16 mph    
Max Gust Speed 23 mph    
Visibility 10 miles    
Events      
Averages and records for this station are not official NWS values.
T = Trace of Precipitation, MM = Missing Value Source: NWS Daily Summary

Daily Weather History Graph

Daily Weather History Graph

Search for Another Location

Airport or City:

Trip Planner

Search our weather history database for the weather conditions in past years. The results will help you decide how hot, cold, wet, or windy it might be!

Date:

Astronomy

Jun. 11, 2013 Rise Set
Actual Time 5:19 AM CDT 9:26 PM CDT
Civil Twilight 4:36 AM CDT 10:08 PM CDT
Nautical Twilight 3:37 AM CDT 11:08 PM CDT
Astronomical Twilight 1:33 AM CDT 12:50 AM CDT
Moon 8:14 AM CDT (6/11) 11:15 PM CDT (6/11)
Length of Visible Light 17h 31m
Length of Day
16h 07m
Waxing Crescent, 8% of the Moon is Illuminated
Jun 11
Waxing Crescent
Jun 16
First Quarter
Jun 23
Full
Jun 29
Last Quarter
Jul 8
New

Hourly Weather History & Observations

Time (CDT) Temp. Dew Point Humidity Pressure Visibility Wind Dir Wind Speed Gust Speed Precip Events Conditions
12:14 AM 55.4 °F 50.0 °F 82% 29.81 in 10.0 mi Calm Calm - N/A   Clear
12:34 AM 55.4 °F 51.8 °F 88% 29.81 in 10.0 mi SW 4.6 mph - N/A   Clear
12:55 AM 55.4 °F 48.2 °F 77% 29.82 in 10.0 mi SW 4.6 mph - N/A   Clear
1:14 AM 55.4 °F 50.0 °F 82% 29.82 in 10.0 mi SW 5.8 mph - N/A   Clear
1:34 AM 53.6 °F 48.2 °F 82% 29.82 in 10.0 mi WSW 5.8 mph - N/A   Clear
1:54 AM 55.4 °F 51.8 °F 88% 29.83 in 10.0 mi West 4.6 mph - N/A   Clear
2:14 AM 55.4 °F 51.8 °F 88% 29.83 in 10.0 mi West 5.8 mph - N/A   Clear
2:34 AM 55.4 °F 51.8 °F 88% 29.84 in 10.0 mi West 6.9 mph - N/A   Clear
2:54 AM 55.4 °F 51.8 °F 88% 29.84 in 10.0 mi West 9.2 mph - N/A   Clear
3:14 AM 55.4 °F 50.0 °F 82% 29.85 in 10.0 mi West 8.1 mph - N/A   Clear
3:34 AM 55.4 °F 50.0 °F 82% 29.85 in 10.0 mi West 9.2 mph - N/A   Clear
3:54 AM 53.6 °F 48.2 °F 82% 29.85 in 10.0 mi West 8.1 mph - N/A   Clear
4:14 AM 51.8 °F 46.4 °F 82% 29.85 in 10.0 mi WNW 3.5 mph - N/A   Clear
4:34 AM 51.8 °F 46.4 °F 82% 29.86 in 10.0 mi West 4.6 mph - N/A   Clear
4:54 AM 51.8 °F 46.4 °F 82% 29.86 in 10.0 mi WNW 3.5 mph - N/A   Clear
5:14 AM 51.8 °F 46.4 °F 82% 29.87 in 10.0 mi Calm Calm - N/A   Clear
5:34 AM 48.2 °F 44.6 °F 87% 29.87 in 7.0 mi SSW 3.5 mph - N/A   Clear
5:54 AM 48.2 °F 44.6 °F 87% 29.89 in 7.0 mi Calm Calm - N/A   Clear
6:14 AM 50.0 °F 44.6 °F 82% 29.88 in 7.0 mi Calm Calm - N/A   Clear
6:34 AM 51.8 °F 46.4 °F 82% 29.89 in 7.0 mi SSW 3.5 mph - N/A   Clear
6:54 AM 51.8 °F 46.4 °F 82% 29.88 in 10.0 mi SW 5.8 mph - N/A   Clear
7:14 AM 53.6 °F 48.2 °F 82% 29.89 in 10.0 mi SSW 4.6 mph - N/A   Clear
7:34 AM 55.4 °F 51.8 °F 88% 29.88 in 10.0 mi SW 3.5 mph - N/A   Clear
7:54 AM 57.2 °F 51.8 °F 82% 29.88 in 10.0 mi Calm Calm - 0.01 in   Clear
8:14 AM 59.0 °F 53.6 °F 82% 29.89 in 10.0 mi SW 4.6 mph - N/A   Clear
8:34 AM 60.8 °F 53.6 °F 77% 29.89 in 10.0 mi SW 5.8 mph - N/A   Clear
8:54 AM 60.8 °F 53.6 °F 77% 29.89 in 10.0 mi SW 3.5 mph - N/A   Clear
9:14 AM 62.6 °F 55.4 °F 77% 29.89 in 10.0 mi Calm Calm - N/A   Clear
9:34 AM 64.4 °F 55.4 °F 73% 29.89 in 10.0 mi WSW 5.8 mph - N/A   Clear
9:54 AM 66.2 °F 55.4 °F 68% 29.89 in 10.0 mi WSW 4.6 mph - N/A   Clear
10:14 AM 66.2 °F 55.4 °F 68% 29.89 in 10.0 mi SW 6.9 mph - N/A   Clear
10:34 AM 69.8 °F 55.4 °F 60% 29.89 in 10.0 mi SW 6.9 mph - N/A   Clear
10:54 AM 69.8 °F 53.6 °F 56% 29.89 in 10.0 mi WSW 6.9 mph - N/A   Clear
11:14 AM 69.8 °F 53.6 °F 56% 29.89 in 10.0 mi SW 8.1 mph - N/A   Clear
11:34 AM 71.6 °F 53.6 °F 53% 29.88 in 10.0 mi WSW 9.2 mph - N/A   Clear
11:54 AM 71.6 °F 53.6 °F 53% 29.88 in 10.0 mi SW 6.9 mph - N/A   Clear
12:14 PM 73.4 °F 53.6 °F 50% 29.88 in 10.0 mi West 8.1 mph - N/A   Clear
12:34 PM 73.4 °F 53.6 °F 50% 29.88 in 10.0 mi WSW 12.7 mph 18.4 mph N/A   Clear
12:54 PM 73.4 °F 53.6 °F 50% 29.88 in 10.0 mi WNW 9.2 mph 19.6 mph N/A   Scattered Clouds
1:14 PM 73.4 °F 53.6 °F 50% 29.88 in 10.0 mi West 9.2 mph 19.6 mph N/A   Clear
1:35 PM 73.4 °F 51.8 °F 47% 29.88 in 10.0 mi West 12.7 mph 21.9 mph N/A   Clear
1:54 PM 75.2 °F 48.2 °F 38% 29.88 in 10.0 mi WNW 15.0 mph 20.7 mph N/A   Clear
2:14 PM 75.2 °F 50.0 °F 41% 29.88 in 10.0 mi WNW 12.7 mph 20.7 mph N/A   Clear
2:34 PM 75.2 °F 48.2 °F 38% 29.88 in 10.0 mi WNW 13.8 mph 23.0 mph N/A   Scattered Clouds
2:54 PM 75.2 °F 48.2 °F 38% 29.88 in 10.0 mi WNW 15.0 mph 23.0 mph N/A   Scattered Clouds
3:14 PM 75.2 °F 50.0 °F 41% 29.88 in 10.0 mi West 13.8 mph 21.9 mph N/A   Clear
3:34 PM 75.2 °F 50.0 °F 41% 29.88 in 10.0 mi WNW 12.7 mph 18.4 mph N/A   Clear
3:54 PM 75.2 °F 48.2 °F 38% 29.88 in 10.0 mi NW 12.7 mph 21.9 mph N/A   Clear
4:14 PM 75.2 °F 48.2 °F 38% 29.88 in 10.0 mi WNW 11.5 mph 19.6 mph N/A   Clear
4:34 PM 75.2 °F 48.2 °F 38% 29.87 in 10.0 mi NW 16.1 mph 20.7 mph N/A   Clear
4:54 PM 77.0 °F 46.4 °F 34% 29.87 in 10.0 mi West 12.7 mph 18.4 mph N/A   Clear
5:14 PM 77.0 °F 46.4 °F 34% 29.87 in 10.0 mi WNW 10.4 mph 18.4 mph N/A   Clear
5:34 PM 77.0 °F 48.2 °F 36% 29.87 in 10.0 mi NW 9.2 mph - N/A   Clear
5:54 PM 75.2 °F 48.2 °F 38% 29.87 in 10.0 mi WNW 6.9 mph - N/A   Clear
6:14 PM 75.2 °F 50.0 °F 41% 29.86 in 10.0 mi WNW 8.1 mph - N/A   Clear
6:34 PM 77.0 °F 48.2 °F 36% 29.86 in 10.0 mi WNW 10.4 mph - N/A   Clear
6:54 PM 77.0 °F 50.0 °F 39% 29.86 in 10.0 mi WNW 8.1 mph 16.1 mph N/A   Clear
7:14 PM 75.2 °F 50.0 °F 41% 29.85 in 10.0 mi WNW 4.6 mph - N/A   Clear
7:34 PM 75.2 °F 50.0 °F 41% 29.85 in 10.0 mi West 4.6 mph - N/A   Clear
7:54 PM 75.2 °F 51.8 °F 44% 29.85 in 10.0 mi WNW 3.5 mph - N/A   Clear
8:14 PM 75.2 °F 50.0 °F 41% 29.85 in 10.0 mi WNW 5.8 mph - N/A   Clear
8:34 PM 73.4 °F 53.6 °F 50% 29.86 in 10.0 mi WNW 4.6 mph - N/A   Clear
8:54 PM 69.8 °F 53.6 °F 56% 29.86 in 10.0 mi NW 4.6 mph - N/A   Clear
9:14 PM 68.0 °F 51.8 °F 56% 29.87 in 10.0 mi NW 4.6 mph - N/A   Clear
9:35 PM 68.0 °F 51.8 °F 56% 29.87 in 10.0 mi NW 3.5 mph - N/A   Clear
9:54 PM 66.2 °F 51.8 °F 60% 29.88 in 10.0 mi Calm Calm - N/A   Clear
10:14 PM 64.4 °F 51.8 °F 64% 29.88 in 10.0 mi Calm Calm - N/A   Clear
10:34 PM 62.6 °F 55.4 °F 77% 29.89 in 10.0 mi Calm Calm - N/A   Clear
10:54 PM 62.6 °F 53.6 °F 72% 29.90 in 10.0 mi Calm Calm - N/A   Clear
11:14 PM 62.6 °F 51.8 °F 68% 29.91 in 10.0 mi North 4.6 mph - N/A   Clear
11:34 PM 62.6 °F 51.8 °F 68% 29.91 in 10.0 mi NNE 4.6 mph - N/A   Clear
11:54 PM 59.0 °F 51.8 °F 77% 29.90 in 10.0 mi NE 3.5 mph - N/A   Clear